View from above orbital plane
|
View from above satellite
|
Ground track
|
The orbit data is extracted from the following two-line orbital elements,
1 20855U 90081T 21057.81040907 -.00000135 00000-0 -53511-4 0 9992
2 20855 98.7057 70.5117 0023591 205.2128 327.8234 14.08688729566918
Epoch (UTC): | 26 February 2021 19:26:59 |
Eccentricity: | 0.0023591 |
inclination: | 98.7057° |
perigee height: | 847 km |
apogee height: | 881 km |
right ascension of ascending node: | 70.5117° |
argument of perigee: | 205.2128° |
revolutions per day: | 14.08688729 |
mean anomaly at epoch: | 327.8234° |
orbit number at epoch: | 56691 |
The dashed part of the orbit path shows where the satellite is in the earth's shadow,
|
|